Location: Tamazert
(32.6352°N, 5.2072°W)
Time: 04:59:36
(UTC+00:00)

Vanguard 1 Rocket - Pass Details

Date: 09 October 2022
Orbit: 650 x 4225 km, 34.3° (Epoch: 05 December)

Event Time Altitude Azimuth Distance (km) Brightness Sun altitude
Rises 13:35:51 0° 187° (S) 7,426 12.7 45.7°
Reaches altitude 10° 13:42:56 10° 173° (S) 6,888 12.5 44.9°
Maximum altitude 13:58:52 22° 132° (SE) 6,435 12.0 42.9°
Drops below altitude 10° 14:14:57 10° 92° (E) 7,126 11.7 40.7°
Sets 14:22:07 0° 79° (E) 7,764 11.8 39.6°
